sat.trackr.live / text

‹ back to catalog

STARLINK-34372

NORAD 64301 · 2025-123L

PAYLOAD ACTIVE UNKNOWN

§ Identity

Operator
Country
US
Launch date
2025-06-08
Launch site
AFWTR
Launch vehicle
Mass (kg)
RCS (m²)

Purposes: comms

External: N2YO · Heavens-Above · Gunter

§ Orbital elements

Epoch: 2026-05-25T00:52:04.187712Z

Period
96.11 min
Inclination
70.0016°
Eccentricity
0.0002464
Mean motion
14.98341071 rev/d
Perigee alt
570.3 km
Apogee alt
573.7 km
Semi-major
6,950.2 km
B*
4.5982e-4
RAAN
1.9980°
Arg perigee
269.3398°
Mean anomaly
90.7478°
Rev number
5,305

§ Raw data

STARLINK-343721 64301U 25123L   26145.03615958  .00005399  00000+0  45982-3 0  99982 64301  70.0016   1.9980 0002464 269.3398  90.7478 14.98341071 53059

JSON: /api/v1/satellites/64301 · /tle

For live sub-satellite position, see the globe view (requires WebGL).

§ Visibility from observer

Set your observer location to see the next 7 days of passes ≥ 10°. The values pass through the URL so the page stays shareable.

No JS? Fill the form by hand. The geolocation button needs JavaScript.